Regional Weather Roundup
Issued by NWS

Home | Current Version | Previous Version | Text Only | Print | Product List | Glossary Off
Versions: 1 2 3 4 5 6 7 8 9 10 11 12 13 14 15 16 17 18 19 20 21 22 23 24 25 26 27 28 29 30 31 32 33 34 35 36 37 38 39 40 41 42 43 44 45 46 47 48 49 50

000
ASUS43 KOAX 181802
RWRNE

WEATHER ROUNDUP FOR NEBRASKA
NATIONAL WEATHER SERVICE OMAHA NE
100 PM CDT WED OCT 18 2017

NOTES: SATELLITE DATA IS BEING USED TO AUGMENT CLOUD COVER ABOVE
       12000 FEET.
       "FAIR" INDICATES FEW OR NO CLOUDS BELOW 12,000 FEET WITH NO
       SIGNIFICANT WEATHER AND/OR OBSTRUCTIONS TO VISIBILITY.


NEZ001>004-019>022-054>056-181900-
NEBRASKA PANHANDLE

CITY           SKY/WX    TMP DP  RH WIND       PRES   REMARKS
SCOTTSBLUFF    SUNNY     70  22  16 NE10      30.12R
6HR MIN TEMP:  43; 6HR MAX TEMP:  71;

ALLIANCE       SUNNY     68  26  20 NE10      30.11S
6HR MIN TEMP:  31; 6HR MAX TEMP:  68;

CHADRON        SUNNY     64  25  22 NE12      30.11F
6HR MIN TEMP:  37; 6HR MAX TEMP:  65;

GORDON         FAIR      63  29  27 N10       30.11S
6HR MIN TEMP:  38; 6HR MAX TEMP:  63;

KIMBALL        SUNNY     70  19  14 N12       30.16R
SIDNEY         SUNNY     71  18  13 N14       30.12R
6HR MIN TEMP:  35; 6HR MAX TEMP:  72;

$$

NEZ057>060-069>072-079>082-181900-
SOUTHWEST NEBRASKA

CITY           SKY/WX    TMP DP  RH WIND       PRES   REMARKS
NORTH PLATTE   SUNNY     75  30  19 N16G23    30.04R
6HR MIN TEMP:  37; 6HR MAX TEMP:  75;

IMPERIAL       SUNNY     78  15   9 N14       30.06R
6HR MIN TEMP:  44; 6HR MAX TEMP:  79;

LEXINGTON      SUNNY     74  33  22 N14G23    29.99R
MCCOOK         SUNNY     78  28  16 N18       30.00R
6HR MIN TEMP:  41; 6HR MAX TEMP:  79;

OGALLALA       SUNNY     74  25  16 NE15      30.07R
$$

NEZ005>010-023>029-035>040-094-181900-
NORTH CENTRAL NEBRASKA

CITY           SKY/WX    TMP DP  RH WIND       PRES   REMARKS
VALENTINE      SUNNY     68  29  23 N18       30.07R
6HR MIN TEMP:  41; 6HR MAX TEMP:  68;

AINSWORTH      SUNNY     65  36  33 N20G26    30.05R
BROKEN BOW     SUNNY     72  34  24 N20G28    30.00R
6HR MIN TEMP:  49; 6HR MAX TEMP:  72;

O`NEILL        SUNNY     69  37  31 N18G24    30.00R
ORD            LGT RAIN  72  31  22 N22G29    29.97R
6HR MIN TEMP:  41; 6HR MAX TEMP:  72; 6HR PCP: TRACE;

THEDFORD       SUNNY     69  33  26 N16G23    30.07R
$$

NEZ041-046>049-061>064-073>077-083>087-181900-
SOUTH CENTRAL NEBRASKA

CITY           SKY/WX    TMP DP  RH WIND       PRES   REMARKS
GRAND ISLAND   SUNNY     75  39  27 N12       29.95R
6HR MIN TEMP:  48; 6HR MAX TEMP:  75;

AURORA         SUNNY     73  42  31 W7        29.94R
HASTINGS       SUNNY     74  37  26 VRB5      29.94S
6HR MIN TEMP:  45; 6HR MAX TEMP:  74;

HEBRON         MOSUNNY   70  49  46 S9        29.93F
HOLDREGE       SUNNY     74  38  26 N12G18    29.97R
KEARNEY        SUNNY     74  37  26 N12       29.97R
YORK           SUNNY     72  46  40 W7        29.93S
$$

NEZ011>018-030>034-042>045-181900-
NORTHEAST NEBRASKA

CITY           SKY/WX    TMP DP  RH WIND       PRES   REMARKS
NORFOLK        SUNNY     70  37  29 N16       29.92R
6HR MIN TEMP:  50; 6HR MAX TEMP:  71;

ALBION         SUNNY     72  35  26 N17G23    29.96R
BLAIR          MOSUNNY   71  49  44 SW8       29.92R
COLUMBUS       SUNNY     70  45  40 W8        29.93R
FREMONT        SUNNY     70  49  46 S6        29.93R
TEKAMAH        SUNNY     71  47  42 SW7       29.92R
6HR MIN TEMP:  46; 6HR MAX TEMP:  72;

WAYNE          SUNNY     70  35  27 N10       29.93R
$$

NEZ050>053-065>068-078-088>093-181900-
SOUTHEAST NEBRASKA

CITY           SKY/WX    TMP DP  RH WIND       PRES   REMARKS
LINCOLN        SUNNY     72  49  44 S13       29.93S
6HR MIN TEMP:  49; 6HR MAX TEMP:  72;

OMAHA EPPLEY   MOSUNNY   71  49  45 S15       29.92S
6HR MIN TEMP:  49; 6HR MAX TEMP:  71;

BEATRICE       CLOUDY    69  51  51 S13       29.95S
FALLS CITY     SUNNY     68  48  48 S12G21    29.96F
6HR MIN TEMP:  46; 6HR MAX TEMP:  68;

NEBRASKA CITY  MOSUNNY   69  50  51 S14       29.94F
PLATTSMOUTH    MOSUNNY   70  48  45 S15       29.93F
$$

NEZ044-045-051>053-067-181900-
OMAHA AREA

CITY           SKY/WX    TMP DP  RH WIND       PRES   REMARKS
OMAHA EPPLEY   MOSUNNY   71  49  45 S15       29.92S
6HR MIN TEMP:  49; 6HR MAX TEMP:  71;

BLAIR          MOSUNNY   71  49  44 SW8       29.92R
FREMONT        SUNNY     70  49  46 S6        29.93R
MILLARD        SUNNY     72  51  46 S10       29.91F
OFFUTT AFB     SUNNY     70  49  45 S13       29.92S
PLATTSMOUTH    MOSUNNY   70  48  45 S15       29.93F
WAHOO          FAIR      73  47  39 S8        29.92R
$$



USA.gov is the U.S. government's official web portal to all federal, state and local government web resources and services.